This is the latest recevied weather packets stored in our database for station/object K1RFS. If no packets are shown the sender has not sent any weather packets the latest 10 day(s).
| Time | Temp. | Humidity | Pressure | Rain* | Wind** | Luminosity | Snow |
|---|---|---|---|---|---|---|---|
| 1788094369 | 14.44° C | 93% | 1003 hPa | 0 mm | - | 1 W/m² | - |
| 1788094067 | 14.44° C | 93% | 1002.8 hPa | 0 mm | - | 1 W/m² | - |
| 1788093767 | 14.44° C | 93% | 1002.9 hPa | 0 mm | - | 0 W/m² | - |
| 1788093464 | 14.44° C | 93% | 1003.2 hPa | 0 mm | - | 0 W/m² | - |
| 1788093160 | 13.89° C | 92% | 1002.9 hPa | 0 mm | - | 0 W/m² | - |
| 1788092857 | 13.89° C | 92% | 1003.2 hPa | 1.27 mm | - | 0 W/m² | - |
| 1788092552 | 13.89° C | 92% | 1003.1 hPa | 3.05 mm | - | 0 W/m² | - |
| 1788092247 | 13.89° C | 92% | 1002.9 hPa | 1.78 mm | - | 0 W/m² | - |
| 1788091946 | 13.89° C | 92% | 1002.8 hPa | 0 mm | - | 0 W/m² | - |
| 1788091641 | 13.89° C | 92% | 1002.3 hPa | 0 mm | - | 0 W/m² | - |
| 1788091338 | 13.33° C | 92% | 1002.6 hPa | 0 mm | - | 0 W/m² | - |
| 1788091034 | 13.33° C | 92% | 1002.3 hPa | 0 mm | - | 0 W/m² | - |
| 1788090730 | 13.33° C | 92% | 1002.8 hPa | 0 mm | - | 0 W/m² | - |
| 1788090427 | 13.33° C | 92% | 1002.8 hPa | 0 mm | - | 0 W/m² | - |
| 1788090126 | 13.33° C | 92% | 1002.5 hPa | 0 mm | - | 0 W/m² | - |
| 1788089821 | 13.33° C | 91% | 1002.6 hPa | 0 mm | - | 0 W/m² | - |
| 1788089516 | 13.89° C | 91% | 1002.8 hPa | 4.83 mm | - | 0 W/m² | - |
| 1788089212 | 13.89° C | 90% | 1002.6 hPa | 21.08 mm | - | 0 W/m² | - |
| 1788088908 | 15° C | 88% | 1002.8 hPa | 16.26 mm | - | 0 W/m² | - |
| 1788088604 | 15.56° C | 84% | 1003.7 hPa | 0 mm | - | 0 W/m² | - |
| 1788088299 | 15.56° C | 84% | 1002.4 hPa | 0 mm | - | 0 W/m² | - |
| 1788087994 | 15.56° C | 84% | 1002 hPa | 0 mm | - | 0 W/m² | - |
| 1788087690 | 15.56° C | 83% | 1002.2 hPa | 0 mm | - | 0 W/m² | - |
| 1788087384 | 16.11° C | 83% | 1002.2 hPa | 0 mm | - | 0 W/m² | - |
| 1788087080 | 16.11° C | 82% | 1002.2 hPa | 0 mm | - | 0 W/m² | - |
* Rain latest hour (hover to see other rain measurements)
** Current wind speed in m/s (hover to see current wind gust speed)